{"data":{"norad_id":43194,"intl_designator":"2018-015C","name":"ZHANGHENG 1-01 (CSES-1)","alt_names":[],"object_type":"PAYLOAD","status":"ACTIVE","operator":null,"country":"PRC","launch_date":"2018-02-02","launch_site_code":"JSC","launch_vehicle":null,"mission":null,"orbit_class":"UNKNOWN","rcs_meters":null,"size_class":null,"mass_kg":null,"dimensions":null,"purposes":["science"],"wikipedia_slug":null,"has_3d_model":false,"image_url":null,"decayed_at":null,"tle_current":{"epoch":"2026-05-25T04:12:21.957696Z","epoch_age_seconds":60720,"freshness":"FRESH","line1":"1 43194U 18015C   26145.17525414  .00005799  00000+0  26385-3 0  9999","line2":"2 43194  97.6856 310.3810 0015847 348.4474  11.6394 15.21017076461149","mean_motion":15.21017076,"eccentricity":0.0015847,"inclination_deg":97.6856,"raan_deg":310.381,"arg_perigee_deg":348.4474,"mean_anomaly_deg":11.6394,"bstar":0.00026385,"rev_number":46114,"period_min":94.673493330327,"perigee_km":491.86730358735,"apogee_km":513.6756549215,"semimajor_km":6880.9084792544,"source":"CELESTRAK","updated_at":"2026-05-25T13:38:24.646079Z"}}}